Capo Mele, Italy

1:48 PM CEST on March 28, 2017 (GMT +0200)
Capo Mele

Weather History for LIMU - July, 2013

Change the Weather History Date:

Tuesday, July 2, 2013

  Actual Average Record
Temperature  
Mean Temperature 70 °F -  
Max Temperature 77 °F 78 °F 86 °F (2005)
Min Temperature 63 °F 68 °F 60 °F (1997)
Cooling Degree Days 5    
Growing Degree Days 20 (Base 50)    
Moisture  
Dew Point 64 °F    
Average Humidity 82    
Maximum Humidity 100    
Minimum Humidity 46    
Precipitation  
Precipitation 0.00 in 0.02 in - ()
Sea Level Pressure  
Sea Level Pressure 30.08 in    
Wind  
Wind Speed 6 mph ()    
Max Wind Speed 14 mph    
Max Gust Speed -    
Visibility 10.1 miles    
Events      
Averages and records for this station are not official NWS values.
T = Trace of Precipitation, MM = Missing Value Source: Averaged Metar Reports

Daily Weather History Graph

Daily Weather History Graph

Search for Another Location

Airport or City:

Trip Planner

Search our weather history database for the weather conditions in past years. The results will help you decide how hot, cold, wet, or windy it might be!

Date:

Astronomy

Jul. 02, 2013 Rise Set
Actual Time 5:49 AM CEST 9:13 PM CEST
Civil Twilight 5:13 AM CEST 9:49 PM CEST
Nautical Twilight 4:25 AM CEST 10:36 PM CEST
Astronomical Twilight 3:26 AM CEST 11:35 PM CEST
Moon 1:49 AM CEST (7/2) 4:06 PM CEST (7/2)
Length of Visible Light 16h 36m
Length of Day
15h 24m
Waning Crescent, 29% of the Moon is Illuminated
Jul 2
Waning Crescent
Jul 8
New
Jul 16
First Quarter
Jul 22
Full
Jul 29
Last Quarter

Hourly Weather History & Observations

Time (CEST) Temp. Dew Point Humidity Pressure Visibility Wind Dir Wind Speed Gust Speed Precip Events Conditions
12:55 AM 64.4 °F 64.4 °F 100% 30.09 in - NNE 6.9 mph - N/A   Clear
1:55 AM 64.4 °F 62.6 °F 94% 30.09 in - North 2.3 mph - N/A   Clear
2:00 AM 65 °F 63 °F 92% 30.10 in 12 mi North 2.3 mph - -  
2:55 AM 66.2 °F 60.8 °F 83% 30.09 in - North 2.3 mph - N/A   Clear
3:55 AM 64.4 °F 59.0 °F 83% 30.09 in - NE 5.8 mph - N/A   Clear
4:55 AM 64.4 °F 62.6 °F 94% 30.06 in - NE 4.6 mph - N/A   Clear
5:55 AM 64.4 °F 57.2 °F 77% 30.06 in - NNE 6.9 mph - N/A   Clear
6:55 AM 66.2 °F 59.0 °F 78% 30.06 in - North 8.1 mph - N/A   Clear
7:55 AM 68.0 °F 51.8 °F 56% 30.09 in - NNE 6.9 mph - N/A   Clear
8:00 AM 68 °F 52 °F 46% 30.08 in 12 mi NNE 6.9 mph - -   Clear
8:55 AM 69.8 °F 57.2 °F 64% 30.09 in - NNE 9.2 mph - N/A   Clear
9:55 AM 73.4 °F 60.8 °F 65% 30.09 in - NE 9.2 mph - N/A   Clear
10:55 AM 75.2 °F 64.4 °F 69% 30.09 in - NNE 10.4 mph - N/A   Clear
11:55 AM 75.2 °F 68.0 °F 78% 30.09 in - NNE 10.4 mph - N/A   Clear
12:55 PM 77.0 °F 68.0 °F 74% 30.09 in - NNE 9.2 mph - N/A   Clear
1:55 PM 77.0 °F 69.8 °F 78% 30.09 in - NE 13.8 mph - N/A   Clear
2:00 PM 77 °F 70 °F 72% 30.08 in 12 mi NE 13.8 mph - -   Clear
2:55 PM 75.2 °F 66.2 °F 73% 30.09 in - NE 11.5 mph - N/A   Clear
3:55 PM 75.2 °F 68.0 °F 78% 30.09 in - NE 8.1 mph - N/A   Clear
4:55 PM 73.4 °F 69.8 °F 88% 30.06 in - ENE 5.8 mph - N/A   Clear
5:55 PM 69.8 °F 68.0 °F 94% 30.06 in - East 3.5 mph - N/A   Clear
6:55 PM 69.8 °F 68.0 °F 94% 30.06 in - ENE 3.5 mph - N/A   Clear
7:55 PM 68.0 °F 66.2 °F 94% 30.06 in - ENE 3.5 mph - N/A   Clear
8:00 PM 68 °F 67 °F 95% 30.06 in 12 mi ENE 3.5 mph - -   Partly Cloudy
8:55 PM 68.0 °F 66.2 °F 94% 30.06 in - NNE 5.8 mph - N/A   Clear
9:55 PM 66.2 °F 64.4 °F 94% 30.04 in - North 3.5 mph - N/A   Clear
10:55 PM 66.2 °F 64.4 °F 94% 30.06 in 6.2 mi South 2.3 mph - N/A   Partly Cloudy
11:55 PM 66.2 °F 64.4 °F 94% 30.06 in 6.2 mi South 2.3 mph - N/A   Scattered Clouds